Flag for Canada Weather past 2 weeks in Taloyoak, Nunavut, Canada

Now
43 °F

Drizzle. Fog.


Feels Like: 36 °F
Forecast: 43 / 54 °F
Wind: 12 mph from Northeast

Location: Spence Bay Airport

Current Time: Jul 29, 2015 at 1:26:51 AM

Latest Report: Jul 29, 2015 at 1:00 AM


Visibility: 2 mi

Pressure: 29.90 "Hg

Humidity: 100%

Dew point: 43 °F

Location of TaloyoakLocation

Historic Weather in Taloyoak — Graph

°F

Taloyoak temperature yesterday

Maximum temperature yesterday: 55 °F (at 2:00 PM)
Minimum temperature yesterday: 41 °F (at 5:00 AM)
Average temperature yesterday: 48 °F

Past Weeks' High & Low Weather Summary

 TemperatureHumidityPressure
High70 °F (Jul 24, 4:00 PM)100% (Jul 17, 8:00 PM)30.07 "Hg (Jul 17, 8:00 PM)
Low37 °F (Jul 14, 2:00 AM)38% (Jul 24, 4:00 PM)29.74 "Hg (Jul 27, 4:00 AM)
Average50 °F77%29.90 "Hg
* Reported Jul 13 11:00 PM — Jul 28 11:00 PM, Taloyoak, Weather by CustomWeather, © 2015

Note: Actual official high and low records may vary slightly from our data, if they occured in-between our weather recording intervals... More about our weather records

Advertising

Taloyoak weather history for previous 24 hours

 ConditionsComfort  
Time TempWeatherWind HumidityBarometerVisibility
11:00 PM
Tue, Jul 28
48 °FScattered showers. Fog.7 mph87%29.90 "Hg15 mi
10:00 PM48 °FPartly sunny.7 mph94%29.90 "Hg15 mi
9:00 PM50 °FPartly sunny.12 mph88%29.91 "Hg15 mi
8:00 PM50 °FPartly sunny.10 mph82%29.91 "Hg15 mi
7:00 PM52 °FScattered showers. Partly sunny.10 mph82%29.91 "Hg15 mi
6:00 PM52 °FScattered showers. Partly sunny.10 mph82%29.91 "Hg15 mi
5:00 PM52 °FPartly sunny.16 mph82%29.91 "Hg15 mi
4:00 PM54 °FScattered clouds.15 mph82%29.90 "Hg15 mi
3:00 PM54 °FPassing clouds.15 mph77%29.90 "Hg15 mi
2:00 PM55 °FBroken clouds.14 mph77%29.89 "Hg15 mi
1:00 PM52 °FPartly sunny.12 mph88%29.90 "Hg15 mi
12:00 PM50 °FScattered showers. Fog.13 mph88%29.89 "Hg15 mi
11:00 AM50 °FFog.9 mph94%29.89 "Hg15 mi
10:00 AM48 °FDrizzle. Fog.7 mph94%29.88 "Hg15 mi
9:00 AM48 °FDrizzle. Fog.7 mph94%29.88 "Hg8 mi
8:00 AM46 °FFog.9 mph93%29.87 "Hg8 mi
7:00 AM45 °FDrizzle. Fog.8 mph100%29.86 "Hg8 mi
6:00 AM43 °FDrizzle. Fog.12 mph100%29.86 "Hg7 mi
5:00 AM41 °FDrizzle. Fog.12 mph100%29.85 "Hg6 mi
4:00 AM43 °FLight rain. Fog.10 mph93%29.85 "Hg10 mi
3:00 AM43 °FSprinkles. Fog.8 mph100%29.84 "Hg8 mi
2:00 AM43 °FFog.10 mph100%29.83 "Hg8 mi
1:00 AM43 °FFog.8 mph100%29.83 "Hg8 mi
Weather by CustomWeather, © 2015

See weather overviewHow to use our weather pages